BEIDOU-3 M18 (C37)

Last updated on Wed Sep 17 2025 00:03:25 GMT+0000 (Coordinated Universal Time)

1 43707U 18093B 25258.78697882 -.00000025 00000+0 00000+0 0 9995 2 43707 54.1791 191.5981 0007534 326.1981 33.7427 1.86229838 46422
UTC large
Height (km)
Speed (km/s)
/
Latitude / Longitude
Inclination (degrees)
Orbital Period (minutes)
Azimuth
Elevation
Range (km)
Doppler Factor

Next 0 passes for location: London (51.5072 / 0.1276)

Sorry there are no passes over London.